カタログに戻る

FENGYUN 1C DEB

LostPO
NORAD 32368·DEBRIS·🇨🇳 China

打ち上げ May 10, 1999 から Taiyuan Satellite Launch Center

Loading…

次のパス (今後24時間)

TLE

古いSource: Space-Track

元期: May 13, 2024, 06:37 UTC

1 32368U 99025CZM 24134.27636693  .00011954  00000-0  58270-2 0  9997
2 32368  97.8312 300.8313 0274143 107.3568 255.7780 14.00435745842330

AllMySatでFENGYUN 1C DEBをリアルタイム追跡

Download on the App Store